OBJECT A, 69472

Orbit data source: Space-Track

You're viewing an Uncataloged Satellite

Recently launched and/or uncataloged satellites may have evolving metadata. Metadata may include but not limited to: Owner, Maufacturer, Bus, Motor, and Mission.

OBJECT A, 69472 is a Chinese satellite in LEO that was launched on Tue, 09 Jun 2026 UTC via a ZHUQUE-2E launch vehicle from the Jiuquan Satellite Launch Center, China (JSC). Unknown objects in Earth's orbit typically refer to objects detected orbiting the Earth but have not yet been identified or cataloged. These objects could be anything from previously untracked satellites, spent rocket stages, debris from satellite collisions, or even natural meteoroids temporarily captured by Earth's gravity.

Loading next visibility...
Identifier
69472, 2026-128A
Orbit
LEO
Country
Flag of CNCN / PRC
Related business
Manufacturer
SECM
Mission
Operational spacecraft
Bus & Motor
QIANFAN, Unknown motor
Mass
300 kg wet, ~270 kg dry
Launch date (UTC)
2026-06-09 (1 month ago)
Launch vehicle
ZHUQUE-2E
Launch site
Jiuquan Satellite Launch Center, China (JSC)
Object type
Unknown
Shape & HBR
Unknown shape, 1.1 m
Radar Cross Section
Large (>1 m²)

Expand to show TLE details & history
Last TLE update: 1 week ago

TLE from 1 week ago
0 OBJECT A
1 69472U 26128A   26194.39389829  .00005883  00000-0  98125-4 0  9993
2 69472  54.9999 184.1420 0011627   6.4285 353.6897 15.53518270  5303
Epoch: 2026-07-13T09:27Z
TLE epoch observation values (Epoch: 2026-07-13T09:27:12.812Z)
Latitude
0.00001°
Longitude
111.05958°
Altitude
399.729 km
Speed
7.676 km/s
True Right ascension
12h 16m 34s
True Declination
0° 00' 00"
Sunlit
Object was in daylight at epoch
Visualization orbit readout
Latitude
Unknown
Longitude
Unknown
Altitude
Unknown
Speed
Unknown
Apparent Right ascension
Unknown
Apparent Declination
Unknown
Sunlit
N/A
Visualization observer readout
Local Sidereal Time
05:15:41
Azimuth
Unknown
Elevation
Unknown
Doppler factor
Unknown
Orbital elements
Apogee altitude
414.314 km
Perigee altitude
398.537 km
Semi-major axis
6,784.562 km
Eccentricity
0.00116
Inclination
54.9999°
RAAN
184.142°
Arg. of periapsis
6.4285°
True anomaly
353.67503°
Mean anomaly
353.6897°
Eccentric anomaly
353.68237°
Mean motion
3.88383 °/min
Orbital period
92.69 mins
BSTAR
0.000098125
Loading maneuver chart data...
Computing Atmospheric mass density...
Loading historical data...
Loading historical data...
Loading historical data...
Loading historical data...
Loading historical data...
Loading historical data...
Loading historical data...

Documentation

Showing up to 5 results
|